Find Starlink 32432

NORAD ID: 61257 Int'l Des: 2024-175 Owner: SPXS Country: US Constellation: starlink operational
LEOCIRCULAR

現在のビュー

3D地球を読み込み中...

About Starlink 32432

Starlink 32432 (NORAD 61257) is a starlink constellation satellite (v2 mini) launched Sep 25, 2024 by SPXS of US. It operates in LEO, CIRCULAR orbit with a mass of 730.00 kg.

Starlink 32432について

説明を読み込み中...

次回通過

Passes for default location (London). Set your location on the main map for personalized predictions.

高度履歴

Loading altitude history...

軌道要素

1 61257U 24175Q 26170.97417410 .00001341 00000-0 50815-4 0 9991
2 61257 53.1601 78.2503 0001292 98.3416 261.7733 15.34394299 97126
Epoch: Jun 19, 2026 • Age: 15 hours

現在のステータス

高度 468.1 km
速度 7.64 km/s
衛星直下点 52.03°N, 65.67°E
打ち上げ日 Sep 25, 2024
運用期間 1.7 years
タイプ internet

技術仕様

分類 Payload
質量 730.00 kg
乾燥質量 700.00 kg
総質量 730.00 kg
長さ 0.30 m
直径 4.10 m
スパン 29.00 m
形状 Box + pan
製造者 SPXS
バスタイプ Starlink V2M
フェーズステータス In Orbit
所有者/国 SPXS/US

Most Searched